Kuiper-00079

operational
NORAD ID: 64826 Int'l Des: 2025-151 Owner: KUIP Country: US Constellation: kuiper
LEOCIRCULAR

Kuiper-00079について

説明を読み込み中...

リアルタイム位置

3D地球を読み込み中...

次回通過

高度履歴

Altitude vs Time

uPlot chart will show altitude changes over time

軌道要素

1 64826U 25151L 25340.97402208 .00008259 00000-0 11108-2 0 9993
2 64826 51.8995 350.5589 0011490 294.4915 65.4849 14.79907715 22773
Epoch: Dec 6, 2025 • Age: 10 hours

現在のステータス

高度 626.8 km
速度 7.55 km/s
衛星直下点 -4.87°S, 132.47°E
打ち上げ日 Jul 16, 2025
運用期間 0.3 years
タイプ internet

技術仕様

分類 Payload
質量 490.00 kg
乾燥質量 490.00 kg
総質量 490.00 kg
長さ 1.80 m
直径 0.70 m
スパン 5.00 m
形状 Box + 2 pan
製造者 KUIP
バスタイプ Kuiper
フェーズステータス In Orbit
所有者/国 KUIP/US

大規模コンステレーション

Loading constellations...